STARLINK-2542, 48292

Orbit data source: Space-Track

STARLINK-2542, 48292 is a payload satellite owned by SpaceX/Seattle (US) in LEO that was launched on Thu, 29 Apr 2021 UTC via an FALCON 9 launch vehicle from the Air Force Eastern Test Range (AFETR). Payload-class satellites include a variety of spacecraft equipped with specific instruments for various scientific and technological missions. These include communications satellites like Starlink; space stations such as the ISS; scientific satellites like the Hubble; Earth observation satellites from companies like Planet Labs, Umbra, and HawkEye 360; GPS; miniature CubeSats for education and research; and military/defense satellites.

Loading next visibility...
Identifier
48292, 2021-036S
Orbit
LEO
Country
Flag of USUS
Related business
Manufacturer
SpaceX/Seattle
Mission
Operational Commercial Communications
Bus & Motor
STARLINK, Unknown motor
Mass
260 kg wet, ~248 kg dry
Launch date (UTC)
2021-04-29 (5 years ago)
Launch vehicle
FALCON 9
Launch site
Air Force Eastern Test Range (AFETR)
Object type
Payload
Rocket body
Debris
Shape & HBR
Box + 1 Pan, 10.1 m
Radar Cross Section
13.562 m², Large (>1 m²)

Expand to show TLE details & history
Last TLE update: 3 days ago

TLE from 3 days ago
0 STARLINK-2542
1 48292U 21036S   26170.79642086  .00000988  00000-0  43595-4 0  9990
2 48292  53.1610 320.2303 0001156  90.6264 269.4870 15.31695352284051
Epoch: 2026-06-19T19:06Z
TLE epoch observation values (Epoch: 2026-06-19T19:06:50.762Z)
Latitude
-0°
Longitude
125.49853°
Altitude
471.661 km
Speed
7.631 km/s
True Right ascension
21h 20m 55s
True Declination
0° 00' 00"
Sunlit
Object was in full shadow at epoch
Visualization orbit readout
Latitude
Unknown
Longitude
Unknown
Altitude
Unknown
Speed
Unknown
Apparent Right ascension
Unknown
Apparent Declination
Unknown
Sunlit
N/A
Visualization observer readout
Local Sidereal Time
21:42:25
Azimuth
Unknown
Elevation
Unknown
Doppler factor
Unknown
Orbital elements
Apogee altitude
471.802 km
Perigee altitude
470.219 km
Semi-major axis
6,849.147 km
Eccentricity
0.00012
Inclination
53.161°
RAAN
320.2303°
Arg. of periapsis
90.6264°
True anomaly
269.47375°
Mean anomaly
269.487°
Eccentric anomaly
269.48038°
Mean motion
3.82903 °/min
Orbital period
94.02 mins
BSTAR
0.000043595
Loading maneuver chart data...
Computing Atmospheric mass density...
Loading historical data...
Loading historical data...
Loading historical data...
Loading historical data...
Loading historical data...
Loading historical data...
Loading historical data...

Documentation

Showing up to 5 results
|